Regional Weather Roundup
Issued by NWS

Home | Current Version | Previous Version | Graphics & Text | Print | Product List | Glossary On
Versions: 1 2 3 4 5 6 7 8 9 10 11 12 13 14 15 16 17 18 19 20 21 22 23 24 25 26 27 28 29 30 31 32 33 34 35 36 37 38 39 40 41 42 43 44 45 46 47 48 49 50
000
ASUS43 KLSX 220807
RWRMO

WEATHER SUMMARY FOR MISSOURI
NATIONAL WEATHER SERVICE SPRINGFIELD MO
300 AM CDT FRI SEP 22 2017

NOTE: "FAIR" INDICATES FEW OR NO CLOUDS BELOW 12,000 FEET WITH NO
       SIGNIFICANT WEATHER AND/OR OBSTRUCTIONS TO VISIBILITY.
       CURRENT SKY AND/OR WEATHER CONDITIONS ARE NOT AVAILABLE FOR
       CHILLICOTHE AND FARMINGTON.

MOZ001>031-035>038-043-044-053-054-220900-
...NORTHERN AND WESTERN MISSOURI...

CITY           SKY/WX    TMP DP  RH WIND       PRES   REMARKS
KANSAS CTY INT CLEAR     77  70  79 S13       29.93S
KANSAS C DTWN  CLEAR     80  71  74 S8        29.92F
LEE`S SUMMIT   CLEAR     76  71  85 S9        29.95S
ST JOSEPH      CLEAR     78  72  81 S10       29.90S
CHILLICOTHE      N/A     77  71  82 S7        29.95S
KIRKSVILLE     CLEAR     74  68  81 S8        29.99R

$$
MOZ066>068-077>081-088>096-101>105-220900-
...SOUTHWEST MISSOURI...

CITY           SKY/WX    TMP DP  RH WIND       PRES   REMARKS
SPRINGFIELD    CLEAR     73  69  87 S8        30.00S
JOPLIN         CLEAR     73  71  93 SE6       29.96S
BRANSON        CLEAR     72  68  88 CALM      30.02S

$$
MOZ032>034-039>042-045>050-055>058-069>072-220900-
...CENTRAL MISSOURI...

CITY           SKY/WX    TMP DP  RH WIND       PRES   REMARKS
COLUMBIA       CLEAR     73  69  87 SE6       30.01S
JEFFERSON CITY CLEAR     74  67  78 E5        30.00R
ROLLA          CLEAR     72  69  90 S7        30.04S
SEDALIA        CLEAR     74  70  87 SE6       29.99R
WHITEMAN AFB   CLEAR     72  66  82 S7        29.95S
WARRENSBURG    CLEAR     73  66  78 S5        29.95S
OSAGE BEACH    CLEAR     72  68  87 SE3       30.01S

$$
MOZ051-052-059>065-220900-
...EAST CENTRAL MISSOURI...

CITY           SKY/WX    TMP DP  RH WIND       PRES   REMARKS
ST LOUIS INTL  CLEAR     78  70  76 S8        30.02F
SPIRIT OF STL  CLEAR     71  69  93 CALM      30.01S
ST CHARLES     CLEAR     68  68 100 NE5       30.01S

$$
MOZ072>076-082>087-097>100-106>115-220900-
...SOUTH CENTRAL AND SOUTHEAST MISSOURI...

CITY           SKY/WX    TMP DP  RH WIND       PRES   REMARKS
CAPE GIRARDEAU CLEAR     67  65  93 CALM      30.02F
FARMINGTON     CLEAR     68  66  93 CALM      30.05F
POPLAR BLUFF   CLEAR     69  68  96 CALM      30.01F
WEST PLAINS    CLEAR     72  69  90 CALM      30.05F

$$



USA.gov is the U.S. government's official web portal to all federal, state and local government web resources and services.